YV2037 SVBM-SVLF

Flight info

Callsign YV2037
Flight time 1h 11m
Altitude 16000
Route UGOSI W9 OPKUN W11 VRA W8 LFA
Aircraft AC90/L-SDCFG/C

Departure

Time 2026-04-27 20:55
Airport Jacinto Lara International Airport (SVBM)

Arrival

Time 2026-04-27 22:07
Airport La Fria Airport (SVLF)
Time Latitude Longitude Altitude Speed Heading
2026-04-27 20:43 10.04499 -69.35825 2048 ft 0 kts 170°
2026-04-27 20:45 10.04498 -69.35825 2048 ft 0 kts 170°
2026-04-27 20:50 10.04497 -69.35825 2048 ft 0 kts 170°
2026-04-27 20:50 10.04496 -69.35824 2048 ft 1 kts 172°
2026-04-27 20:51 10.04452 -69.35855 2048 ft 15 kts 241°
2026-04-27 20:51 10.04421 -69.35978 2048 ft 18 kts 261°
2026-04-27 20:51 10.04408 -69.36059 2048 ft 17 kts 261°
2026-04-27 20:51 10.04390 -69.36174 2048 ft 16 kts 257°
2026-04-27 20:52 10.04370 -69.36282 2048 ft 15 kts 260°
2026-04-27 20:52 10.04353 -69.36386 2048 ft 15 kts 260°
2026-04-27 20:52 10.04330 -69.36521 2048 ft 14 kts 261°
2026-04-27 20:52 10.04313 -69.36621 2048 ft 14 kts 262°
2026-04-27 20:53 10.04305 -69.36686 2048 ft 14 kts 263°
2026-04-27 20:53 10.04292 -69.36787 2048 ft 14 kts 262°
2026-04-27 20:53 10.04277 -69.36885 2048 ft 14 kts 261°
2026-04-27 20:53 10.04256 -69.37015 2048 ft 14 kts 261°
2026-04-27 20:54 10.04165 -69.37114 2048 ft 13 kts 174°
2026-04-27 20:54 10.04080 -69.37102 2048 ft 12 kts 170°
2026-04-27 20:54 10.04077 -69.37003 2048 ft 41 kts 79°
2026-04-27 20:55 10.04156 -69.36516 2048 ft 101 kts 82°
2026-04-27 20:55 10.04288 -69.35647 2306 ft 136 kts 79°
2026-04-27 20:55 10.04461 -69.34669 2835 ft 152 kts 81°
2026-04-27 20:55 10.04638 -69.33543 3219 ft 171 kts 81°
2026-04-27 20:56 10.04829 -69.32338 3719 ft 176 kts 81°
2026-04-27 20:56 10.05025 -69.31099 4248 ft 179 kts 81°
2026-04-27 20:56 10.05294 -69.29836 4662 ft 189 kts 67°
2026-04-27 20:56 10.06167 -69.28871 5120 ft 186 kts 27°
2026-04-27 20:57 10.07410 -69.28683 5623 ft 182 kts 348°
2026-04-27 20:57 10.08442 -69.29303 6124 ft 176 kts 308°
2026-04-27 20:57 10.08864 -69.30423 6654 ft 169 kts 277°
2026-04-27 20:57 10.09000 -69.31347 7075 ft 166 kts 278°
2026-04-27 20:58 10.09165 -69.32311 7492 ft 163 kts 279°
2026-04-27 20:58 10.09359 -69.33435 7988 ft 160 kts 279°
2026-04-27 20:58 10.09549 -69.34535 8482 ft 157 kts 278°
2026-04-27 20:58 10.09864 -69.35575 8971 ft 156 kts 295°
2026-04-27 20:59 10.10556 -69.36436 9471 ft 158 kts 316°
2026-04-27 20:59 10.11575 -69.36898 9973 ft 164 kts 343°
2026-04-27 20:59 10.12680 -69.37112 10480 ft 160 kts 339°
2026-04-27 20:59 10.13729 -69.37386 10968 ft 157 kts 337°
2026-04-27 21:00 10.14776 -69.37674 11463 ft 155 kts 338°
2026-04-27 21:00 10.15809 -69.37948 11958 ft 152 kts 338°
2026-04-27 21:00 10.16818 -69.38210 12447 ft 149 kts 338°
2026-04-27 21:00 10.17821 -69.38467 12944 ft 149 kts 338°
2026-04-27 21:01 10.18840 -69.38728 13451 ft 151 kts 338°
2026-04-27 21:01 10.19850 -69.38984 13946 ft 153 kts 338°
2026-04-27 21:01 10.20884 -69.39245 14448 ft 154 kts 338°
2026-04-27 21:01 10.21923 -69.39507 14948 ft 154 kts 338°
2026-04-27 21:02 10.22965 -69.39770 15448 ft 154 kts 338°
2026-04-27 21:02 10.24008 -69.40032 15916 ft 157 kts 338°
2026-04-27 21:02 10.25137 -69.40324 16032 ft 180 kts 339°
2026-04-27 21:02 10.26428 -69.40684 16025 ft 202 kts 332°
2026-04-27 21:03 10.27517 -69.41588 16010 ft 208 kts 299°
2026-04-27 21:03 10.27898 -69.43009 16008 ft 216 kts 268°
2026-04-27 21:03 10.27425 -69.44454 16009 ft 226 kts 240°
2026-04-27 21:03 10.26434 -69.45724 16014 ft 233 kts 233°
2026-04-27 21:04 10.25401 -69.47014 16006 ft 237 kts 236°
2026-04-27 21:04 10.24451 -69.48390 16003 ft 239 kts 240°
2026-04-27 21:04 10.23581 -69.49838 16002 ft 241 kts 242°
2026-04-27 21:04 10.22759 -69.51335 16001 ft 243 kts 244°
2026-04-27 21:05 10.21972 -69.52853 16001 ft 244 kts 245°
2026-04-27 21:05 10.21187 -69.54383 16001 ft 245 kts 245°
2026-04-27 21:05 10.20413 -69.55898 16000 ft 245 kts 245°
2026-04-27 21:05 10.19631 -69.57433 16000 ft 246 kts 245°
2026-04-27 21:06 10.18846 -69.58975 16000 ft 246 kts 245°
2026-04-27 21:06 10.18063 -69.60512 16000 ft 246 kts 245°
2026-04-27 21:06 10.17272 -69.62066 16000 ft 247 kts 245°
2026-04-27 21:06 10.16486 -69.63613 16000 ft 247 kts 245°
2026-04-27 21:07 10.15700 -69.65156 16000 ft 247 kts 245°
2026-04-27 21:07 10.14910 -69.66709 16000 ft 247 kts 245°
2026-04-27 21:07 10.14125 -69.68253 16000 ft 247 kts 245°
2026-04-27 21:07 10.13345 -69.69785 16000 ft 247 kts 245°
2026-04-27 21:08 10.12555 -69.71338 16000 ft 247 kts 245°
2026-04-27 21:08 10.11770 -69.72879 16000 ft 247 kts 245°
2026-04-27 21:08 10.10981 -69.74428 16000 ft 247 kts 245°
2026-04-27 21:08 10.10189 -69.75984 16000 ft 247 kts 245°
2026-04-27 21:09 10.09404 -69.77526 16000 ft 247 kts 245°
2026-04-27 21:09 10.08614 -69.79076 16000 ft 247 kts 245°
2026-04-27 21:09 10.07836 -69.80604 16000 ft 247 kts 245°
2026-04-27 21:09 10.07034 -69.82177 16000 ft 247 kts 245°
2026-04-27 21:10 10.06256 -69.83705 16000 ft 247 kts 245°
2026-04-27 21:10 10.05469 -69.85250 16000 ft 247 kts 245°
2026-04-27 21:10 10.04681 -69.86795 16000 ft 247 kts 245°
2026-04-27 21:10 10.03887 -69.88354 16000 ft 247 kts 245°
2026-04-27 21:11 10.03098 -69.89904 16000 ft 247 kts 245°
2026-04-27 21:11 10.02311 -69.91447 16000 ft 247 kts 245°
2026-04-27 21:11 10.01519 -69.93000 16000 ft 247 kts 245°
2026-04-27 21:11 10.00730 -69.94548 16000 ft 247 kts 245°
2026-04-27 21:12 9.99940 -69.96097 16000 ft 247 kts 245°
2026-04-27 21:12 9.99152 -69.97642 16000 ft 247 kts 245°
2026-04-27 21:12 9.98360 -69.99195 16000 ft 247 kts 245°
2026-04-27 21:12 9.97583 -70.00717 16000 ft 247 kts 245°
2026-04-27 21:13 9.96791 -70.02269 16000 ft 247 kts 245°
2026-04-27 21:13 9.96000 -70.03819 16000 ft 247 kts 245°
2026-04-27 21:13 9.95210 -70.05365 16000 ft 247 kts 245°
2026-04-27 21:13 9.94418 -70.06917 16000 ft 247 kts 245°
2026-04-27 21:14 9.93630 -70.08461 16000 ft 247 kts 245°
2026-04-27 21:14 9.92837 -70.10012 16000 ft 247 kts 245°
2026-04-27 21:14 9.92049 -70.11555 16000 ft 247 kts 245°
2026-04-27 21:14 9.91267 -70.13086 16000 ft 247 kts 245°
2026-04-27 21:15 9.90477 -70.14632 16000 ft 247 kts 245°
2026-04-27 21:15 9.89684 -70.16183 16000 ft 247 kts 245°
2026-04-27 21:15 9.88893 -70.17731 16000 ft 247 kts 245°
2026-04-27 21:15 9.88101 -70.19281 16000 ft 247 kts 245°
2026-04-27 21:16 9.87310 -70.20828 16000 ft 247 kts 245°
2026-04-27 21:16 9.86519 -70.22374 16000 ft 247 kts 245°
2026-04-27 21:16 9.85737 -70.23905 16000 ft 247 kts 245°
2026-04-27 21:16 9.84951 -70.25441 16000 ft 247 kts 245°
2026-04-27 21:17 9.84157 -70.26993 16000 ft 247 kts 245°
2026-04-27 21:17 9.83364 -70.28544 16000 ft 247 kts 245°
2026-04-27 21:17 9.82571 -70.30093 16000 ft 247 kts 245°
2026-04-27 21:17 9.81780 -70.31637 16000 ft 247 kts 245°
2026-04-27 21:18 9.80989 -70.33184 16000 ft 247 kts 245°
2026-04-27 21:18 9.80197 -70.34732 16000 ft 247 kts 245°
2026-04-27 21:18 9.79413 -70.36262 16000 ft 247 kts 245°
2026-04-27 21:18 9.78623 -70.37805 16000 ft 247 kts 245°
2026-04-27 21:19 9.77820 -70.39373 16000 ft 247 kts 245°
2026-04-27 21:19 9.77041 -70.40894 16000 ft 247 kts 245°
2026-04-27 21:19 9.76249 -70.42441 16000 ft 247 kts 245°
2026-04-27 21:20 9.74665 -70.45532 16000 ft 247 kts 245°
2026-04-27 21:20 9.73873 -70.47078 16000 ft 247 kts 245°
2026-04-27 21:20 9.73086 -70.48613 16000 ft 247 kts 245°
2026-04-27 21:20 9.72297 -70.50153 16000 ft 247 kts 245°
2026-04-27 21:21 9.71510 -70.51688 16000 ft 247 kts 245°
2026-04-27 21:21 9.70718 -70.53234 16000 ft 247 kts 245°
2026-04-27 21:21 9.69925 -70.54780 16000 ft 247 kts 245°
2026-04-27 21:21 9.69137 -70.56315 16000 ft 247 kts 245°
2026-04-27 21:22 9.68337 -70.57876 16000 ft 247 kts 245°
2026-04-27 21:22 9.67548 -70.59414 16000 ft 247 kts 245°
2026-04-27 21:22 9.66766 -70.60937 16000 ft 247 kts 245°
2026-04-27 21:22 9.65966 -70.62497 16000 ft 247 kts 245°
2026-04-27 21:23 9.65165 -70.64058 16000 ft 247 kts 245°
2026-04-27 21:23 9.64379 -70.65588 16000 ft 247 kts 245°
2026-04-27 21:23 9.63590 -70.67125 16000 ft 247 kts 245°
2026-04-27 21:23 9.62796 -70.68672 16000 ft 247 kts 245°
2026-04-27 21:24 9.61998 -70.70227 16000 ft 247 kts 245°
2026-04-27 21:24 9.61213 -70.71755 16000 ft 247 kts 245°
2026-04-27 21:24 9.60416 -70.73308 16000 ft 247 kts 245°
2026-04-27 21:24 9.59616 -70.74865 16000 ft 247 kts 245°
2026-04-27 21:25 9.58830 -70.76394 16000 ft 247 kts 245°
2026-04-27 21:25 9.58040 -70.77932 16000 ft 247 kts 245°
2026-04-27 21:25 9.57241 -70.79486 16000 ft 247 kts 245°
2026-04-27 21:25 9.56446 -70.81034 16000 ft 247 kts 245°
2026-04-27 21:26 9.55652 -70.82578 16000 ft 247 kts 245°
2026-04-27 21:26 9.54855 -70.84127 16000 ft 247 kts 245°
2026-04-27 21:26 9.54061 -70.85672 16000 ft 247 kts 245°
2026-04-27 21:26 9.53266 -70.87218 16000 ft 247 kts 245°
2026-04-27 21:27 9.52471 -70.88764 16000 ft 247 kts 245°
2026-04-27 21:27 9.51685 -70.90292 16000 ft 248 kts 245°
2026-04-27 21:27 9.50892 -70.91833 16000 ft 248 kts 245°
2026-04-27 21:27 9.50096 -70.93381 16000 ft 248 kts 245°
2026-04-27 21:28 9.49300 -70.94929 16000 ft 248 kts 245°
2026-04-27 21:28 9.48503 -70.96476 16000 ft 248 kts 245°
2026-04-27 21:28 9.47709 -70.98020 16000 ft 248 kts 245°
2026-04-27 21:28 9.46913 -70.99566 16000 ft 248 kts 245°
2026-04-27 21:29 9.46126 -71.01093 16000 ft 248 kts 245°
2026-04-27 21:29 9.45330 -71.02640 16000 ft 248 kts 245°
2026-04-27 21:29 9.44536 -71.04182 16000 ft 248 kts 245°
2026-04-27 21:29 9.43739 -71.05729 16000 ft 248 kts 245°
2026-04-27 21:30 9.42942 -71.07276 16000 ft 248 kts 245°
2026-04-27 21:30 9.42145 -71.08824 16000 ft 248 kts 245°
2026-04-27 21:30 9.41350 -71.10366 16000 ft 248 kts 245°
2026-04-27 21:30 9.40554 -71.11911 16000 ft 248 kts 245°
2026-04-27 21:31 9.39767 -71.13439 16000 ft 248 kts 245°
2026-04-27 21:31 9.38971 -71.14982 16000 ft 248 kts 245°
2026-04-27 21:31 9.38175 -71.16526 16000 ft 248 kts 245°
2026-04-27 21:31 9.37377 -71.18075 16000 ft 248 kts 245°
2026-04-27 21:32 9.36580 -71.19619 16000 ft 248 kts 245°
2026-04-27 21:32 9.35783 -71.21164 16000 ft 248 kts 245°
2026-04-27 21:32 9.34986 -71.22710 16000 ft 248 kts 245°
2026-04-27 21:32 9.34189 -71.24255 16000 ft 248 kts 245°
2026-04-27 21:33 9.33391 -71.25802 16000 ft 248 kts 245°
2026-04-27 21:33 9.32606 -71.27324 16000 ft 248 kts 245°
2026-04-27 21:33 9.31809 -71.28868 16000 ft 248 kts 245°
2026-04-27 21:33 9.31009 -71.30418 16000 ft 248 kts 245°
2026-04-27 21:34 9.30213 -71.31960 16000 ft 248 kts 245°
2026-04-27 21:34 9.29413 -71.33510 16000 ft 248 kts 245°
2026-04-27 21:34 9.28616 -71.35053 16000 ft 248 kts 245°
2026-04-27 21:34 9.27818 -71.36599 16000 ft 248 kts 245°
2026-04-27 21:35 9.27031 -71.38122 16000 ft 248 kts 245°
2026-04-27 21:35 9.26232 -71.39670 16000 ft 248 kts 245°
2026-04-27 21:35 9.25435 -71.41212 16000 ft 248 kts 245°
2026-04-27 21:35 9.24637 -71.42756 16000 ft 248 kts 245°
2026-04-27 21:36 9.23837 -71.44305 16000 ft 248 kts 245°
2026-04-27 21:36 9.23039 -71.45849 16000 ft 248 kts 245°
2026-04-27 21:36 9.22241 -71.47392 16000 ft 248 kts 245°
2026-04-27 21:36 9.21442 -71.48939 16000 ft 248 kts 245°
2026-04-27 21:37 9.20655 -71.50461 16000 ft 248 kts 245°
2026-04-27 21:37 9.19857 -71.52004 16000 ft 248 kts 245°
2026-04-27 21:37 9.19058 -71.53550 16000 ft 248 kts 245°
2026-04-27 21:37 9.18258 -71.55097 16000 ft 248 kts 245°
2026-04-27 21:38 9.17460 -71.56640 16000 ft 248 kts 245°
2026-04-27 21:38 9.16670 -71.58166 16000 ft 248 kts 245°
2026-04-27 21:38 9.15862 -71.59728 16000 ft 248 kts 245°
2026-04-27 21:38 9.15074 -71.61251 16000 ft 248 kts 245°
2026-04-27 21:39 9.14273 -71.62798 16000 ft 248 kts 245°
2026-04-27 21:39 9.13474 -71.64342 16000 ft 248 kts 245°
2026-04-27 21:39 9.12677 -71.65881 16000 ft 248 kts 245°
2026-04-27 21:39 9.11886 -71.67409 16000 ft 248 kts 245°
2026-04-27 21:40 9.11086 -71.68956 16000 ft 248 kts 245°
2026-04-27 21:40 9.10287 -71.70498 16000 ft 248 kts 245°
2026-04-27 21:40 9.09486 -71.72045 16000 ft 248 kts 245°
2026-04-27 21:40 9.08691 -71.73579 16000 ft 248 kts 245°
2026-04-27 21:41 9.07894 -71.75117 16000 ft 248 kts 244°
2026-04-27 21:41 9.07097 -71.76655 16000 ft 248 kts 244°
2026-04-27 21:41 9.06290 -71.78213 16000 ft 248 kts 244°
2026-04-27 21:41 9.05493 -71.79752 16000 ft 248 kts 244°
2026-04-27 21:42 9.04696 -71.81289 16000 ft 248 kts 244°
2026-04-27 21:42 9.03896 -71.82833 16000 ft 248 kts 244°
2026-04-27 21:42 9.03096 -71.84375 16000 ft 248 kts 244°
2026-04-27 21:42 9.02306 -71.85900 15987 ft 248 kts 244°
2026-04-27 21:43 9.01477 -71.87500 15535 ft 260 kts 244°
2026-04-27 21:43 9.00635 -71.89125 15033 ft 262 kts 244°
2026-04-27 21:43 8.99786 -71.90761 14530 ft 258 kts 244°
2026-04-27 21:43 8.98973 -71.92323 14031 ft 249 kts 244°
2026-04-27 21:44 8.97949 -71.93730 13524 ft 246 kts 228°
2026-04-27 21:44 8.96557 -71.94711 13027 ft 247 kts 210°
2026-04-27 21:44 8.94988 -71.95406 12535 ft 243 kts 208°
2026-04-27 21:44 8.93478 -71.96082 12043 ft 241 kts 208°
2026-04-27 21:45 8.91938 -71.96774 11541 ft 242 kts 208°
2026-04-27 21:45 8.90390 -71.97469 11043 ft 245 kts 208°
2026-04-27 21:45 8.88826 -71.98170 10545 ft 247 kts 208°
2026-04-27 21:45 8.87248 -71.98876 10083 ft 247 kts 208°
2026-04-27 21:46 8.85718 -71.99557 10024 ft 232 kts 208°
2026-04-27 21:46 8.84290 -72.00192 9999 ft 219 kts 208°
2026-04-27 21:46 8.82932 -72.00797 9995 ft 208 kts 209°
2026-04-27 21:46 8.81652 -72.01368 9994 ft 200 kts 209°
2026-04-27 21:47 8.80402 -72.01926 9995 ft 193 kts 209°
2026-04-27 21:47 8.79190 -72.02468 9996 ft 188 kts 209°
2026-04-27 21:47 8.78009 -72.02996 9997 ft 184 kts 210°
2026-04-27 21:47 8.76853 -72.03513 9997 ft 180 kts 210°
2026-04-27 21:48 8.75714 -72.04022 9998 ft 178 kts 210°
2026-04-27 21:48 8.74589 -72.04525 9995 ft 176 kts 210°
2026-04-27 21:48 8.73476 -72.05021 9982 ft 176 kts 210°
2026-04-27 21:48 8.72370 -72.05517 9985 ft 174 kts 210°
2026-04-27 21:49 8.71268 -72.06009 9996 ft 172 kts 210°
2026-04-27 21:49 8.70172 -72.06498 9999 ft 171 kts 210°
2026-04-27 21:49 8.69088 -72.06983 9999 ft 171 kts 210°
2026-04-27 21:49 8.68004 -72.07467 10000 ft 170 kts 210°
2026-04-27 21:50 8.66930 -72.07946 10000 ft 170 kts 210°
2026-04-27 21:50 8.65843 -72.08431 10000 ft 169 kts 210°
2026-04-27 21:50 8.64771 -72.08910 10000 ft 169 kts 210°
2026-04-27 21:50 8.63708 -72.09384 10000 ft 169 kts 210°
2026-04-27 21:51 8.62635 -72.09863 10000 ft 168 kts 210°
2026-04-27 21:51 8.61565 -72.10341 10000 ft 168 kts 210°
2026-04-27 21:51 8.60493 -72.10819 10000 ft 168 kts 210°
2026-04-27 21:51 8.59425 -72.11296 10000 ft 168 kts 210°
2026-04-27 21:52 8.58355 -72.11773 10000 ft 168 kts 210°
2026-04-27 21:52 8.57285 -72.12251 10000 ft 168 kts 210°
2026-04-27 21:52 8.56214 -72.12728 10000 ft 168 kts 210°
2026-04-27 21:52 8.55148 -72.13204 10000 ft 168 kts 210°
2026-04-27 21:53 8.54077 -72.13682 10000 ft 168 kts 210°
2026-04-27 21:53 8.53021 -72.14152 10000 ft 168 kts 210°
2026-04-27 21:53 8.51960 -72.14626 10000 ft 168 kts 210°
2026-04-27 21:53 8.50890 -72.15103 10000 ft 168 kts 210°
2026-04-27 21:54 8.49818 -72.15581 10000 ft 168 kts 210°
2026-04-27 21:54 8.48750 -72.16057 10000 ft 168 kts 210°
2026-04-27 21:54 8.47684 -72.16532 10000 ft 168 kts 210°
2026-04-27 21:54 8.46612 -72.17010 10000 ft 168 kts 210°
2026-04-27 21:55 8.45543 -72.17486 10000 ft 168 kts 210°
2026-04-27 21:55 8.44488 -72.17957 10000 ft 168 kts 210°
2026-04-27 21:55 8.43420 -72.18432 10000 ft 168 kts 210°
2026-04-27 21:55 8.42358 -72.18906 10000 ft 168 kts 210°
2026-04-27 21:56 8.41295 -72.19379 10000 ft 168 kts 210°
2026-04-27 21:56 8.39146 -72.20337 10000 ft 168 kts 210°
2026-04-27 21:56 8.38097 -72.20804 10000 ft 168 kts 210°
2026-04-27 21:57 8.37024 -72.21282 10000 ft 168 kts 210°
2026-04-27 21:57 8.35961 -72.21755 10000 ft 168 kts 210°
2026-04-27 21:57 8.34890 -72.22232 10002 ft 168 kts 210°
2026-04-27 21:57 8.33792 -72.22725 9654 ft 182 kts 210°
2026-04-27 21:58 8.32571 -72.23273 9011 ft 199 kts 209°
2026-04-27 21:58 8.31260 -72.23857 8386 ft 210 kts 208°
2026-04-27 21:58 8.29959 -72.24544 7751 ft 212 kts 223°
2026-04-27 21:58 8.29159 -72.25737 7128 ft 209 kts 254°
2026-04-27 21:59 8.29170 -72.27198 6498 ft 211 kts 286°
2026-04-27 21:59 8.29996 -72.28406 5884 ft 216 kts 319°
2026-04-27 21:59 8.31374 -72.28980 5270 ft 221 kts 351°
2026-04-27 21:59 8.32905 -72.28743 4396 ft 231 kts 22°
2026-04-27 22:00 8.34166 -72.27727 3406 ft 241 kts 51°
2026-04-27 22:00 8.35146 -72.26347 2877 ft 230 kts 54°
2026-04-27 22:00 8.36044 -72.25137 2685 ft 207 kts 51°
2026-04-27 22:00 8.36974 -72.24172 2388 ft 177 kts 32°
2026-04-27 22:01 8.38069 -72.23933 2100 ft 152 kts 351°
2026-04-27 22:01 8.38925 -72.24368 1906 ft 132 kts 315°
2026-04-27 22:01 8.39357 -72.25123 1802 ft 122 kts 284°
2026-04-27 22:01 8.39377 -72.25939 1784 ft 116 kts 257°
2026-04-27 22:02 8.39018 -72.26676 1805 ft 120 kts 225°
2026-04-27 22:02 8.38350 -72.27164 1821 ft 115 kts 217°
2026-04-27 22:02 8.37694 -72.27614 1803 ft 115 kts 208°
2026-04-27 22:02 8.36930 -72.27877 1811 ft 123 kts 188°
2026-04-27 22:03 8.36047 -72.27849 1820 ft 130 kts 174°
2026-04-27 22:03 8.35121 -72.27764 1810 ft 136 kts 175°
2026-04-27 22:03 8.34158 -72.27691 1808 ft 138 kts 176°
2026-04-27 22:03 8.33214 -72.27624 1833 ft 137 kts 176°
2026-04-27 22:04 8.32287 -72.27561 1833 ft 127 kts 176°
2026-04-27 22:04 8.31492 -72.27386 1754 ft 117 kts 155°
2026-04-27 22:04 8.30694 -72.27183 1517 ft 121 kts 173°
2026-04-27 22:04 8.29862 -72.27116 1356 ft 118 kts 177°
2026-04-27 22:05 8.29037 -72.27091 1186 ft 118 kts 179°
2026-04-27 22:05 8.28226 -72.27082 1034 ft 115 kts 179°
2026-04-27 22:05 8.27447 -72.27092 899 ft 113 kts 181°
2026-04-27 22:05 8.26656 -72.27085 755 ft 116 kts 179°
2026-04-27 22:06 8.25831 -72.27087 618 ft 118 kts 181°
2026-04-27 22:06 8.25003 -72.27104 419 ft 118 kts 179°
2026-04-27 22:06 8.24228 -72.27105 328 ft 102 kts 181°
2026-04-27 22:06 8.23648 -72.27101 328 ft 51 kts 180°
2026-04-27 22:07 8.23408 -72.27112 328 ft 29 kts 181°
2026-04-27 22:07 8.23340 -72.27098 328 ft 7 kts 38°
2026-04-27 22:07 8.23459 -72.27095 328 ft 24 kts 356°
2026-04-27 22:07 8.23658 -72.27096 328 ft 31 kts 15°
2026-04-27 22:08 8.23764 -72.26989 328 ft 15 kts 95°
2026-04-27 22:08 8.23755 -72.26890 328 ft 13 kts 85°
2026-04-27 22:08 8.23741 -72.26868 328 ft 0 kts 171°